Regional Weather Roundup
Issued by NWS

Home | Current Version | Previous Version | Text Only | Print | Product List | Glossary On
Versions: 1 2 3 4 5 6 7 8 9 10 11 12 13 14 15 16 17 18 19 20 21 22 23 24 25 26 27 28 29 30 31 32 33 34 35 36 37 38 39 40 41 42 43 44 45 46 47 48 49 50
000
ASUS43 KTOP 151108
RWRKS

WEATHER ROUNDUP FOR KANSAS
NATIONAL WEATHER SERVICE GOODLAND KS
500 AM CST FRI DEC 15 2017

NOTE:  "FAIR" INDICATES FEW OR NO CLOUDS BELOW 12,000 FEET WITH NO
SIGNIFICANT WEATHER AND/OR OBSTRUCTIONS TO VISIBILITY.

KSZ001>006-013>018-027>032-041>047-151200-
NORTHWEST KANSAS

CITY           SKY/WX    TMP DP  RH WIND       PRES   REMARKS
GOODLAND       CLOUDY    18  13  80 W10       30.12F WCI   6
HAYS           CLEAR     20  17  88 W6        30.21F
HILL CITY      CLEAR     20  17  88 W6        30.18F
RUSSELL        CLEAR     18  17  96 SW6       30.20S
$$

KSZ061>065-074>080-084>089-151200-
SOUTHWEST KANSAS

CITY           SKY/WX    TMP DP  RH WIND       PRES   REMARKS
DODGE CITY     CLEAR     19  14  81 W9        30.21F
ELKHART        CLEAR     26  24  90 W12       30.23F WCI  16
GARDEN CITY    CLOUDY    13   9  84 W10       30.21F WCI   0
GREAT BEND     CLEAR     18  16  92 W8        30.21F
LIBERAL        CLEAR     18  15  88 W10       30.25F WCI   6
PRATT          CLEAR     21  17  85 W8        30.23F
$$

KSZ066>073-081>083-090>101-151200-
SOUTHEAST KANSAS

CITY           SKY/WX    TMP DP  RH WIND       PRES   REMARKS
CHANUTE        CLEAR     34  30  85 NW7       30.18S
COFFEYVILLE    CLEAR     35  30  82 NW7       30.19S
HUTCHINSON     CLEAR     26  24  92 NW7       30.22R
MEDICINE LODGE   N/A     24  22  91 W6        30.25S
NEWTON         CLEAR     30  27  88 W7        30.20F
PARSONS        CLEAR     31  29  92 NW5       30.19S
WICHITA INTL   PTCLDY    32  28  85 NW8       30.22S
WICHITA JABRA  CLEAR     31  29  92 W8        30.21S
WICHITA MCCONL CLEAR     32  28  83 NW8       30.21S
WINFIELD       CLEAR     28  27  96 NW8       30.23S
$$

KSZ007>012-019>026-033>040-048>060-102>105-151200-
NORTHEAST KANSAS

CITY           SKY/WX    TMP DP  RH WIND       PRES   REMARKS
CONCORDIA      CLEAR     25  22  88 W9        30.18S
EMPORIA        CLOUDY    35  30  82 NW9       30.18S
LAWRENCE       MOCLDY    35  31  85 W7        30.15F
MANHATTAN      CLOUDY    32  28  85 W3        30.18F
MARYSVILLE     PTCLDY    30  28  93 SW3       30.15F
OLATHE IND     CLOUDY    35  32  88 W8        30.15S
OLATHE EXE     CLOUDY    35  31  85 NW7       30.13S
SALINA         PTCLDY    30  26  85 W10       30.21F WCI  21
TOPEKA BILLARD MOCLDY    35  32  88 NW8       30.16S
TOPEKA FORBES  PTCLDY    35  30  82 NW13      30.15F WCI  26
$$



USA.gov is the U.S. government's official web portal to all federal, state and local government web resources and services.